Wind_Speed
23 23 25 26 27 25 23 21 20 18 16 15 15 14 13 13 12 12 11 13 12 11 11 12 10 10 7 2 3 3 4 2 5 7 5 9 5 5 5 11 5 9 10 12 17
24 24 23 24 25 25 24 23 21 19 18 16 15 13 13 14 13 14 15 14 14 12 12 10 8 6 3 2 1 4 3 5 2 3 6 10 9 12 7 9 6 11 13 17 15
25 25 25 23 23 23 23 22 20 19 19 17 15 13 11 11 11 10 12 14 15 14 13 10 6 3 1 1 1 3 4 2 2 5 9 14 11 8 18 2 11 20 19 17 15
30 25 25 24 23 22 22 20 19 17 16 15 13 11 9 8 6 4 5 7 9 10 12 11 7 4 3 2 3 2 2 1 2 6 3 4 10 7 13 5 7 15 19 19 16
30 29 24 25 23 23 21 20 18 17 15 13 12 10 9 8 8 6 2 0 2 6 10 12 11 6 5 3 2 3 1 1 2 2 6 2 4 2 9 11 10 16 19 17 14
28 29 29 26 25 22 22 20 18 16 14 12 11 11 11 7 7 11 7 2 1 5 8 13 7 5 3 2 5 2 2 0 1 1 5 3 2 2 10 10 12 14 14 12 10
31 29 32 29 26 24 21 21 19 16 14 12 11 11 11 11 6 6 10 7 4 6 10 10 4 5 2 3 3 3 3 4 2 3 1 4 7 6 6 11 8 11 13 11 8
29 31 29 33 29 26 24 21 19 18 15 13 12 11 6 10 11 5 7 9 8 7 11 7 6 5 3 5 4 3 5 1 3 5 2 5 8 4 10 17 19 12 12 10 9
31 33 31 30 33 28 24 23 21 19 16 13 13 8 4 9 13 13 9 10 11 10 10 9 8 3 4 5 3 3 3 5 6 9 4 4 6 6 4 3 14 24 18 12 11
38 32 35 32 32 33 27 25 21 20 17 15 10 5 10 10 10 14 13 13 7 11 7 8 3 2 3 3 6 5 3 4 5 4 4 4 9 8 14 14 13 11 14 15 13
38 40 36 38 33 32 30 30 22 12 26 8 14 5 5 10 11 14 16 15 12 10 4 4 4 8 10 6 4 5 3 4 3 3 5 6 7 10 24 24 21 20 18 16 14
29 36 26 40 39 34 37 38 30 11 9 14 9 9 10 14 6 15 20 10 7 4 4 3 6 7 4 5 3 0 1 3 1 1 2 4 10 11 16 18 27 31 30 23 16
29 32 41 36 39 39 45 42 34 18 7 12 11 16 14 13 5 18 23 11 5 6 5 6 4 13 6 5 6 4 5 2 1 2 2 4 8 5 7 21 24 23 25 24 25
29 30 32 30 41 46 48 43 33 21 4 5 10 10 17 11 4 18 26 11 5 9 7 4 7 7 5 6 6 6 6 5 3 3 3 3 5 5 5 6 3 13 16 14 20
26 35 34 39 36 53 50 44 34 17 5 9 10 10 20 16 15 13 25 5 7 8 7 7 4 5 4 5 4 4 4 6 4 2 3 1 1 7 3 6 3 7 17 19 20
29 30 37 44 28 50 49 47 29 5 8 6 11 13 12 13 8 11 18 4 7 4 3 5 2 5 8 3 5 4 5 5 4 3 3 8 7 5 3 4 3 8 17 21 19
26 32 31 39 27 48 50 40 9 8 2 9 8 13 18 11 7 7 14 8 7 7 7 3 2 1 3 6 1 3 5 2 3 1 6 1 4 6 6 3 7 15 22 20 17
26 32 33 36 43 58 54 12 10 7 8 3 10 18 13 16 8 7 14 11 7 2 7 7 5 8 6 6 6 7 5 5 7 5 3 2 6 5 5 7 5 19 24 20 17
24 27 38 38 43 59 41 17 9 7 9 13 14 17 8 14 7 8 13 16 11 8 6 6 5 0 1 4 9 5 5 5 4 3 2 4 5 8 2 5 9 16 19 16 13
25 28 44 41 40 44 20 10 6 7 14 18 9 9 12 19 9 12 16 15 7 10 6 6 3 2 2 3 2 5 7 2 2 2 4 3 3 4 2 4 3 8 16 14 12
23 16 31 46 41 36 17 10 5 18 24 7 7 7 7 16 9 15 16 3 17 12 8 3 4 2 5 7 9 4 3 3 4 4 3 1 4 5 2 3 8 13 15 14 11
23 10 17 42 18 12 9 11 9 18 7 5 5 6 12 14 9 9 10 4 25 17 9 2 3 3 5 2 4 3 5 6 4 4 3 3 4 1 0 4 14 15 13 11 9
17 19 18 53 14 11 8 6 9 18 6 6 5 4 6 10 5 5 6 11 23 12 14 5 4 2 2 3 3 4 4 4 4 2 5 4 4 1 10 11 10 9 3 4 10
14 5 10 24 10 12 15 15 10 7 3 6 6 8 10 11 4 7 5 1 13 13 14 17 4 5 5 2 5 5 6 7 6 4 3 7 3 5 4 3 5 7 19 21 20
11 4 7 4 5 14 11 15 22 7 2 7 4 8 10 6 4 5 4 3 5 16 7 6 5 6 3 5 4 4 11 15 15 13 10 4 7 7 9 6 13 26 24 20 24
11 5 7 4 21 17 12 16 27 7 7 5 11 11 6 12 8 10 8 4 5 2 5 8 2 3 1 3 1 3 6 7 6 4 7 8 13 8 21 22 24 26 27 26 25
8 13 12 11 13 10 4 17 23 12 6 11 20 14 7 10 13 10 8 15 14 10 5 8 6 3 3 1 2 6 7 7 5 6 8 8 10 4 7 11 20 25 24 23 25
Wind_Direction
228 229 225 223 224 225 228 227 230 234 238 243 248 256 265 269 270 269 266 259 261 266 274 282 287 293 303 309 350 335 57 193 194 157 212 181 126 146 149 136 121 187 181 173 160
225 226 224 222 221 221 224 226 227 230 234 239 245 251 260 271 274 265 259 259 260 260 266 281 287 293 273 315 352 83 112 228 263 222 199 179 146 148 142 128 92 131 143 149 157
226 225 224 222 218 219 219 220 223 226 230 235 240 245 251 260 278 264 250 250 255 251 250 255 263 261 259 287 237 158 184 233 289 316 196 158 153 156 144 195 178 166 161 160 163
225 222 222 220 216 216 215 215 217 220 225 229 232 232 231 215 216 194 220 242 255 250 235 226 217 196 187 209 218 213 42 249 306 343 133 116 151 143 164 150 192 194 170 168 174
220 221 218 218 216 213 211 212 212 213 215 217 217 212 201 211 221 192 163 84 250 218 208 196 195 180 183 202 198 159 255 86 108 12 41 104 79 158 183 143 136 159 169 172 181
219 218 216 214 213 212 214 205 202 199 198 200 205 198 198 215 225 215 221 211 127 165 183 179 188 203 229 231 167 131 238 232 205 337 355 17 296 357 216 187 162 172 189 203 217
222 218 216 213 211 209 207 200 196 194 190 188 190 196 206 221 220 208 219 208 185 160 169 181 201 191 183 124 133 98 71 346 221 171 21 15 306 234 200 216 202 207 214 216 231
224 217 216 211 212 208 205 201 196 192 190 182 188 197 219 222 218 185 194 182 176 174 174 179 186 162 142 120 43 79 61 74 285 173 175 144 258 259 259 242 252 237 207 219 252
237 218 214 212 208 206 201 203 197 192 188 185 190 192 224 217 213 209 195 173 174 182 181 190 187 150 129 98 43 2 193 207 306 202 138 160 267 268 44 286 260 232 232 236 231
236 224 211 211 206 204 197 196 190 186 182 180 193 201 223 213 208 196 177 169 150 170 149 161 156 101 115 134 200 189 202 233 220 208 146 204 260 287 273 300 298 251 228 222 228
224 228 206 206 201 197 189 181 172 180 182 182 190 180 187 184 182 184 176 165 154 153 154 165 114 204 198 155 118 131 180 231 236 231 152 220 259 264 270 279 275 264 249 235 229
225 224 233 205 202 199 196 186 183 174 169 199 183 193 170 172 151 179 174 160 152 164 137 69 220 221 211 209 203 208 190 265 40 346 147 270 262 252 250 253 248 248 244 241 237
229 217 232 205 199 196 199 194 183 175 135 208 196 181 173 180 190 186 180 162 134 144 176 171 238 204 191 194 193 194 177 199 68 348 290 341 288 270 273 245 245 240 244 242 232
225 211 220 229 195 194 198 194 182 173 92 210 197 213 194 169 242 188 180 160 174 176 153 229 245 178 176 201 151 178 196 158 121 56 241 41 288 298 272 297 217 221 215 203 193
220 214 205 219 188 193 190 182 177 168 209 184 173 191 192 167 143 187 181 199 172 161 137 228 209 183 173 185 150 194 171 173 142 141 13 213 233 273 281 286 223 135 156 165 169
221 218 205 223 205 194 188 181 165 151 224 166 151 167 154 179 167 144 185 172 163 120 110 202 226 181 186 123 152 153 90 54 65 83 300 205 175 274 225 213 118 144 160 160 166
223 218 213 209 225 182 184 165 185 196 207 178 168 166 173 168 144 179 177 180 163 151 179 156 254 239 166 108 109 128 115 53 2 212 232 120 171 262 277 245 180 170 173 173 172
227 214 222 210 223 180 173 174 204 140 185 160 149 159 176 159 179 176 166 179 237 126 130 162 197 189 192 173 169 176 178 158 194 191 236 79 219 247 263 267 252 183 176 173 174
223 218 220 217 212 183 177 195 176 179 145 143 140 164 166 176 151 167 190 193 200 188 145 149 229 305 150 138 148 184 192 170 99 20 60 221 287 308 120 52 121 155 169 172 181
213 216 222 214 206 196 185 188 181 159 134 137 148 178 171 176 161 180 181 198 192 183 229 186 115 219 149 111 93 166 150 109 60 156 242 271 270 237 307 220 117 136 165 182 192
209 224 230 211 206 202 196 187 160 171 135 135 145 137 156 177 181 184 186 210 185 186 169 159 108 169 150 214 171 148 177 179 141 160 178 191 255 214 252 193 163 186 191 198 212
210 227 206 200 192 191 182 155 166 162 144 116 109 108 161 165 174 179 188 185 192 180 172 154 81 179 191 337 248 169 174 165 143 225 239 142 267 98 339 159 171 189 201 212 227
210 216 212 191 187 166 135 144 152 160 150 148 134 131 159 153 136 182 187 214 181 183 173 153 126 174 121 297 359 198 206 169 130 95 206 153 251 76 113 104 110 129 130 268 265
191 168 222 206 164 142 135 147 134 165 90 102 115 110 108 157 80 168 142 67 175 171 167 146 171 207 197 151 130 198 189 200 190 207 162 221 220 269 273 141 185 301 311 308 305
190 229 172 149 144 145 128 146 143 147 236 155 65 148 137 128 108 131 117 105 55 157 108 118 199 189 141 133 135 201 214 213 216 226 230 192 220 232 275 277 282 302 300 307 307
147 183 117 101 139 134 134 167 157 154 158 198 135 143 135 153 172 169 135 146 161 152 123 163 183 167 334 358 211 223 220 207 217 203 249 242 258 231 258 271 274 286 293 298 301
138 128 122 145 149 144 165 161 159 137 40 141 137 128 125 158 131 121 144 155 159 146 136 177 136 125 230 292 72 316 213 201 203 206 201 223 229 250 250 254 270 283 290 291 294
Height
1499 1502 1505 1509 1513 1516 1519 1522 1524 1527 1529 1531 1533 1534 1535 1536 1537 1537 1538 1539 1538 1538 1538 1538 1538 1538 1538 1537 1537 1537 1546 1550 1542 1545 1538 1536 1539 1542 1542 1544 1546 1547 1547 1549 1552
1495 1499 1502 1505 1509 1512 1516 1519 1522 1524 1526 1529 1530 1531 1532 1534 1535 1534 1536 1535 1536 1537 1537 1538 1537 1538 1537 1537 1537 1537 1549 1543 1537 1534 1534 1533 1536 1539 1542 1544 1547 1547 1549 1550 1552
1490 1494 1499 1502 1505 1509 1512 1515 1518 1521 1524 1526 1528 1529 1531 1533 1533 1530 1531 1532 1532 1534 1535 1536 1537 1538 1537 1537 1537 1538 1544 1538 1536 1535 1532 1531 1534 1537 1539 1544 1543 1545 1548 1550 1552
1485 1489 1494 1498 1502 1506 1509 1513 1516 1519 1522 1524 1527 1528 1529 1531 1535 1528 1529 1529 1529 1531 1532 1534 1537 1538 1537 1537 1537 1539 1537 1536 1535 1535 1533 1532 1533 1535 1536 1539 1541 1543 1546 1548 1550
1479 1484 1489 1495 1499 1503 1506 1510 1513 1516 1519 1522 1524 1525 1527 1529 1527 1528 1528 1528 1528 1528 1530 1532 1535 1536 1536 1535 1536 1537 1537 1536 1536 1535 1536 1535 1534 1535 1536 1537 1540 1543 1546 1548 1550
1474 1479 1485 1490 1495 1500 1504 1507 1511 1514 1516 1519 1522 1523 1526 1527 1524 1525 1527 1528 1527 1527 1528 1531 1534 1535 1535 1535 1536 1536 1537 1537 1537 1536 1536 1538 1537 1536 1535 1537 1540 1542 1544 1546 1547
1467 1473 1480 1486 1491 1496 1501 1505 1509 1513 1515 1517 1520 1521 1523 1523 1522 1523 1525 1526 1527 1527 1528 1531 1533 1534 1535 1535 1535 1535 1538 1538 1537 1538 1538 1539 1539 1536 1534 1535 1537 1539 1541 1543 1544
1462 1467 1474 1480 1487 1493 1498 1503 1506 1511 1514 1515 1519 1520 1519 1519 1520 1521 1523 1525 1526 1526 1528 1531 1532 1534 1534 1535 1536 1538 1542 1548 1538 1537 1538 1541 1545 1534 1534 1533 1533 1535 1537 1539 1541
1456 1461 1468 1475 1482 1489 1495 1500 1505 1509 1512 1515 1519 1520 1518 1517 1518 1520 1522 1523 1524 1527 1528 1530 1532 1534 1534 1537 1545 1543 1552 1550 1542 1535 1536 1540 1541 1532 1531 1530 1529 1531 1533 1535 1538
1451 1455 1462 1469 1477 1484 1492 1498 1504 1507 1510 1514 1517 1521 1515 1514 1514 1517 1520 1522 1523 1527 1529 1530 1532 1535 1534 1539 1548 1546 1548 1545 1544 1536 1536 1539 1539 1532 1529 1529 1529 1529 1530 1532 1535
1444 1449 1453 1464 1471 1479 1488 1493 1499 1503 1503 1505 1508 1508 1508 1512 1513 1515 1519 1522 1524 1526 1530 1529 1534 1537 1530 1531 1534 1536 1541 1543 1537 1533 1535 1539 1538 1534 1528 1526 1526 1526 1527 1529 1532
1436 1443 1446 1457 1466 1474 1480 1481 1486 1490 1502 1505 1505 1505 1509 1511 1513 1515 1519 1521 1523 1527 1528 1533 1535 1531 1530 1531 1533 1535 1537 1539 1534 1533 1534 1535 1534 1529 1524 1520 1518 1519 1522 1525 1527
1431 1434 1442 1449 1460 1469 1470 1478 1488 1493 1498 1502 1504 1504 1507 1511 1511 1512 1517 1518 1521 1526 1529 1533 1527 1527 1530 1531 1533 1535 1536 1538 1540 1536 1535 1536 1534 1524 1514 1510 1511 1512 1516 1520 1522
1426 1430 1437 1440 1454 1459 1465 1478 1486 1491 1502 1500 1500 1501 1504 1507 1509 1510 1514 1517 1519 1522 1526 1530 1524 1526 1529 1530 1530 1537 1532 1533 1536 1542 1549 1538 1547 1526 1513 1509 1507 1508 1512 1514 1517
1419 1425 1430 1436 1437 1445 1459 1474 1482 1489 1496 1486 1490 1493 1495 1502 1503 1507 1512 1515 1516 1514 1521 1527 1523 1526 1528 1526 1526 1531 1528 1532 1534 1541 1545 1544 1553 1526 1516 1512 1508 1509 1509 1512 1516
1414 1419 1425 1430 1433 1446 1458 1470 1478 1485 1480 1481 1480 1484 1492 1496 1500 1506 1510 1514 1514 1514 1517 1522 1521 1523 1522 1523 1525 1528 1531 1536 1539 1546 1564 1542 1544 1531 1516 1508 1508 1511 1512 1513 1516
1409 1413 1419 1424 1428 1438 1451 1463 1472 1457 1472 1474 1472 1478 1484 1489 1498 1501 1505 1508 1511 1518 1522 1522 1522 1521 1519 1524 1527 1529 1535 1556 1570 1556 1554 1536 1540 1522 1508 1503 1504 1507 1511 1513 1516
1405 1409 1412 1418 1427 1429 1441 1450 1442 1454 1463 1461 1464 1474 1479 1485 1493 1498 1501 1502 1506 1506 1515 1524 1528 1520 1516 1516 1522 1527 1531 1549 1552 1551 1541 1536 1534 1517 1504 1503 1503 1506 1509 1513 1516
1402 1405 1408 1411 1422 1422 1429 1428 1425 1441 1446 1450 1465 1472 1476 1481 1485 1493 1497 1495 1497 1501 1505 1518 1518 1515 1514 1512 1517 1526 1530 1529 1540 1566 1553 1537 1523 1508 1505 1505 1507 1509 1513 1516 1518
1395 1400 1397 1407 1415 1417 1419 1419 1429 1429 1433 1442 1454 1465 1468 1475 1482 1487 1492 1486 1491 1494 1497 1501 1518 1514 1515 1514 1516 1518 1521 1533 1540 1564 1561 1535 1525 1517 1508 1507 1512 1515 1516 1518 1518
1395 1396 1390 1401 1410 1408 1401 1415 1425 1426 1424 1437 1450 1458 1463 1466 1478 1477 1482 1481 1483 1491 1495 1497 1503 1517 1514 1511 1512 1519 1521 1522 1528 1540 1537 1540 1523 1511 1506 1506 1511 1515 1516 1516 1516
1387 1381 1377 1391 1391 1393 1399 1410 1413 1420 1424 1429 1439 1446 1454 1463 1474 1476 1477 1474 1477 1484 1493 1497 1505 1510 1509 1510 1508 1508 1510 1515 1531 1534 1539 1533 1526 1507 1508 1507 1509 1513 1516 1518 1518
1375 1375 1374 1377 1372 1383 1396 1403 1407 1415 1420 1426 1433 1433 1443 1458 1471 1473 1474 1473 1475 1482 1487 1494 1509 1513 1512 1516 1510 1511 1510 1510 1517 1524 1522 1530 1524 1510 1509 1511 1513 1515 1516 1516 1514
1371 1366 1370 1363 1368 1376 1386 1400 1408 1416 1417 1421 1428 1431 1443 1457 1461 1471 1475 1475 1474 1478 1484 1490 1505 1501 1496 1495 1500 1509 1507 1509 1513 1527 1518 1514 1514 1510 1508 1510 1511 1511 1510 1509 1509
1358 1357 1358 1358 1371 1371 1379 1391 1401 1418 1417 1418 1427 1427 1438 1460 1464 1468 1472 1475 1477 1478 1484 1494 1499 1499 1493 1494 1498 1501 1501 1502 1507 1508 1511 1507 1512 1509 1506 1504 1504 1502 1503 1505 1505
1351 1350 1352 1361 1370 1372 1379 1393 1397 1414 1414 1417 1420 1430 1433 1443 1448 1460 1463 1469 1473 1481 1485 1492 1499 1499 1502 1496 1497 1499 1500 1502 1504 1507 1508 1508 1505 1502 1501 1502 1501 1501 1501 1501 1501
1345 1346 1350 1362 1370 1374 1382 1388 1394 1398 1408 1411 1416 1426 1436 1439 1442 1451 1453 1458 1463 1472 1483 1491 1498 1509 1519 1509 1508 1519 1506 1502 1500 1499 1499 1505 1497 1495 1497 1497 1497 1497 1498 1498 1497